Weather History for Kandahar, Afghanistan

Change the Weather History Date:

Tuesday, February 12, 2013

  Actual Average Record
Temperature  
Mean Temperature 55 °F -  
Max Temperature 68 °F 64 °F - ()
Min Temperature 42 °F 40 °F - ()
Degree Days  
Heating Degree Days 10    
Growing Degree Days 5 (Base 50)    
Moisture  
Dew Point 27 °F    
Average Humidity 36    
Maximum Humidity 57    
Minimum Humidity 17    
Precipitation  
Precipitation 0.00 in 0.05 in - ()
Sea Level Pressure  
Sea Level Pressure 30.02 in    
Wind  
Wind Speed 11 mph ()    
Max Wind Speed 23 mph    
Max Gust Speed 31 mph    
Visibility 5.7 miles    
Events Rain    
T = Trace of Precipitation, MM = Missing Value Source: Averaged Metar Reports

Daily Weather History Graph

Daily Weather History Graph

Search for Another Location

Airport:

Trip Planner

Search our weather history database for the weather conditions in past years. The results will help you decide how hot, cold, wet, or windy it might be!

Date:

Astronomy

Feb. 12, 2013 Rise Set
Actual Time 6:51 AM AFT 5:51 PM AFT
Civil Twilight 6:26 AM AFT 6:15 PM AFT
Nautical Twilight 5:57 AM AFT 6:44 PM AFT
Astronomical Twilight 5:29 AM AFT 7:12 PM AFT
Moon 7:45 AM AFT (2/12) 8:10 PM AFT (2/12)
Length of Visible Light 11h 49m
Length of Day
10h 59m
Waxing Crescent, 5% of the Moon is Illuminated
Feb 12
Waxing Crescent
Feb 18
First Quarter
Feb 26
Full
Mar 5
Last Quarter
Mar 12
New

Hourly Weather History & Observations

Time (AFT) Temp. Windchill Dew Point Humidity Pressure Visibility Wind Dir Wind Speed Gust Speed Precip Events Conditions
12:20 AM 48.2 °F - 30.2 °F 50% 30.08 in 6.2 mi NE 9.2 mph - N/A   Clear
1:20 AM 46.4 °F 40.7 °F 30.2 °F 53% 30.09 in 6.2 mi ENE 12.7 mph - N/A   Clear
2:20 AM 46.4 °F 40.7 °F 28.4 °F 50% 30.09 in 6.2 mi NE 12.7 mph - N/A   Clear
3:20 AM 44.6 °F 38.8 °F 28.4 °F 53% 30.09 in 6.2 mi NE 11.5 mph - N/A   Clear
4:20 AM 44.6 °F 38.1 °F 28.4 °F 53% 30.09 in 6.2 mi ENE 13.8 mph 20.7 mph N/A   Clear
5:20 AM 44.6 °F 37.8 °F 28.4 °F 53% 30.10 in 6.2 mi ENE 15.0 mph - N/A   Clear
6:20 AM 44.6 °F 38.8 °F 26.6 °F 49% 30.12 in 6.2 mi NE 11.5 mph - N/A   Scattered Clouds
7:20 AM 42.8 °F 34.8 °F 28.4 °F 57% 30.14 in 6.2 mi NE 17.3 mph - N/A   Partly Cloudy
8:20 AM 46.4 °F 41.9 °F 28.4 °F 50% 30.14 in 6.2 mi ENE 9.2 mph - N/A   Partly Cloudy
9:20 AM 51.8 °F - 28.4 °F 41% 30.11 in 5.6 mi ENE 13.8 mph 20.7 mph N/A   Haze
10:20 AM 57.2 °F - 28.4 °F 33% 30.08 in 6.2 mi ENE 13.8 mph - N/A   Scattered Clouds
11:20 AM 60.8 °F - 24.8 °F 25% 30.04 in 6.2 mi NE 12.7 mph - N/A   Scattered Clouds
12:20 PM 64.4 °F - 23.0 °F 21% 30.01 in 6.2 mi NE 9.2 mph - N/A   Mostly Cloudy
1:20 PM 66.2 °F - 23.0 °F 19% 29.95 in 6.2 mi NE 11.5 mph 17.3 mph N/A   Scattered Clouds
2:20 PM 68.0 °F - 21.2 °F 17% 29.92 in 6.2 mi NNE 11.5 mph 17.3 mph N/A   Scattered Clouds
3:20 PM 68.0 °F - 21.2 °F 17% 29.91 in 6.2 mi ENE 10.4 mph - N/A   Mostly Cloudy
4:20 PM 68.0 °F - 23.0 °F 18% 29.89 in 6.2 mi ENE 11.5 mph - N/A   Scattered Clouds
5:20 PM 66.2 °F - 24.8 °F 21% 29.89 in 6.2 mi NNE 11.5 mph 17.3 mph N/A   Scattered Clouds
6:20 PM 64.4 °F - 24.8 °F 22% 29.93 in 6.2 mi NNE 11.5 mph - N/A   Scattered Clouds
7:20 PM 59.0 °F - 33.8 °F 39% 29.97 in 6.2 mi ENE 10.4 mph - N/A   Scattered Clouds
8:20 PM 59.0 °F - 28.4 °F 31% 29.99 in 6.2 mi ESE 5.8 mph - N/A   Scattered Clouds
9:20 PM 59.0 °F - 28.4 °F 31% 29.99 in 6.2 mi East 5.8 mph - N/A   Scattered Clouds
10:20 PM 55.4 °F - 32.0 °F 41% 30.00 in 6.2 mi NE 17.3 mph 23.0 mph N/A   Scattered Clouds
11:20 PM 55.4 °F - 26.6 °F 33% 29.98 in 0.7 mi NE 23.0 mph 31.1 mph N/A   Widespread Dust
11:36 PM 55.4 °F - 26.6 °F 33% 30.00 in 1.1 mi NE 23.0 mph 27.6 mph N/A   Widespread Dust
11:45 PM 55.4 °F - 28.4 °F 36% 29.99 in - NE 23.0 mph 29.9 mph N/A   Widespread Dust
11:58 PM 55.4 °F - 28.4 °F 36% 29.99 in 3.7 mi NE 19.6 mph 25.3 mph N/A Rain Light Rain Showers